Location: Unspecified
(0.0000°N, 0.0000°E)
Time: 23:43:29
(UTC+00:00)

STRAND 1 - Visible Passes

Search period start: 18 January 2019 00:00
Search period end: 28 January 2019 00:00
Orbit: 768 x 782 km, 98.5° (Epoch: 18 January)

Date Brightness Start Highest point End Pass type
(mag) Time Alt. Az. Time Alt. Az. Time Alt. Az.
18 Jan ? 19:08:57 10° NNE 19:14:06 84° ESE 19:19:17 10° S visible
19 Jan ? 18:35:43 10° NE 18:40:14 31° ESE 18:44:46 10° SSE visible
19 Jan ? 20:16:10 10° NW 20:19:07 15° WNW 20:22:06 10° WSW visible
20 Jan ? 19:40:30 10° N 19:45:16 40° WNW 19:50:05 10° SSW visible
21 Jan ? 19:06:16 10° NNE 19:11:24 78° ESE 19:16:34 10° S visible
22 Jan ? 18:33:07 10° NE 18:37:33 29° ESE 18:41:58 10° SSE visible
22 Jan ? 20:13:14 10° NW 20:16:26 17° WNW 20:19:39 10° WSW visible
23 Jan ? 19:37:43 10° N 19:42:34 43° WNW 19:47:27 10° SSW visible
24 Jan ? 19:03:35 10° NNE 19:08:43 72° ESE 19:13:51 10° S visible
25 Jan ? 18:30:32 10° NE 18:34:51 27° ESE 18:39:10 10° SSE visible
25 Jan ? 20:10:19 10° NW 20:13:44 18° WNW 20:17:11 10° WSW visible
26 Jan ? 19:34:58 10° N 19:39:53 47° WNW 19:44:49 10° SSW visible
27 Jan ? 19:00:55 10° NNE 19:06:01 66° ESE 19:11:08 10° S visible
